Location: Maiden
(35.5760°N, 81.2120°W)
Time: 20:39:25
(UTC-05:00)

OAO 3 Copernicus - Pass Details

Date: 14 June 2018
Orbit: 695 x 705 km, 35.0° (Epoch: 13 December)

Event Time Altitude Azimuth Distance (km) Brightness Sun altitude
Rises 21:57:44 0° 246° (WSW) 3,070 8.0 -13.4°
Reaches altitude 10° 22:00:10 10° 243° (WSW) 2,152 7.1 -13.7°
Maximum altitude 22:05:07 60° 164° (SSE) 799 4.3 -14.5°
Enters shadow 22:09:40 12° 86° (E) 1,997 6.3 -15.1°
